Tracking 18851 objects as of 24-Nov-2017
HD Live streaming from Space Station
objects crossing your sky now

FENGYUN 1C DEB

Track FENGYUN 1C DEB now!
10-day predictions


NORAD ID: 31663
Int'l Code: 1999-025CBV
Perigee: 525.3 km
Apogee: 838.7 km
Inclination: 98.9 °
Period: 98.2 minutes
Semi major axis: 7053 km
RCS: 0.0098 m2 (small)
Launch date: May 10, 1999
Source: People's Republic of China (PRC)
Launch site: Taiyaun Space Center, China (TSC)

Note: This is SATELLITE DEBRIS
aabbcc
Your satellite tracking list
Your tracking list is empty




NASA's NSSDC Master Catalog

Two Line Element Set (TLE):
1 31663U 99025CBV 17327.78901283 +.00000480 +00000-0 +70816-4 0  9990
2 31663 098.8947 302.2250 0222114 001.8928 358.3063 14.65688249561227
Source of the keplerian elements: AFSPC